User: anonymous   Login
Location: Budapest
(47.4979°N, 19.0402°E)
Time: 01:36:19
(UTC+01:00)
Language:

Envisat - Orbit

View from above orbital plane
View from above orbital plane
View from above satellite
View from above satellite

Ground track
Ground track

The orbit data is extracted from the following two-line orbital elements,

1 27386U 02009A   17347.43140188 -.00000013  00000-0  94052-5 0  9998
2 27386  98.2096  25.0123 0001504  82.4582 277.6776 14.37910687826839
Epoch (UTC): 13 December 2017 10:21:13
Eccentricity: 0.0001504
inclination: 98.2096°
perigee height: 764 km
apogee height: 766 km
right ascension of ascending node: 25.0123°
argument of perigee: 82.4582°
revolutions per day: 14.37910687
mean anomaly at epoch: 277.6776°
orbit number at epoch: 82683

The dashed part of the orbit path shows where the satellite is in the earth's shadow,  

DLR